| time (UTC) | temp C | wind direction | speed KPH | gust KPH | rain 1hr cm | rain 24hr cm | rain mn cm | humidity % | barometer mb |
| 20260504050749 | 20 | 197 | 0.0 | 0.0 | 0.00 | 0.00 | 0.00 | 76 | 1013.2 |
| 20260504050246 | 20 | 191 | 1.6 | 1.6 | 0.00 | 0.00 | 0.00 | 76 | 1013.4 |
| 20260504045739 | 20 | 199 | 0.0 | 1.6 | 0.00 | 0.00 | 0.00 | 76 | 1013.6 |
| 20260504045233 | 20 | 199 | 0.0 | 0.0 | 0.00 | 0.00 | 0.00 | 77 | 1013.5 |
| 20260504044731 | 20 | 192 | 0.0 | 0.0 | 0.00 | 0.00 | 0.00 | 76 | 1013.6 |
| 20260504044228 | 20 | 198 | 0.0 | 0.0 | 0.00 | 0.00 | 0.00 | 75 | 1013.8 |
| 20260504043725 | 21 | 200 | 0.0 | 0.0 | 0.00 | 0.00 | 0.00 | 75 | 1013.7 |
| 20260504043222 | 21 | 199 | 0.0 | 0.0 | 0.00 | 0.00 | 0.00 | 74 | 1013.7 |
| 20260504042720 | 21 | 200 | 0.0 | 0.0 | 0.00 | 0.00 | 0.00 | 74 | 1013.9 |
| 20260504042216 | 21 | 197 | 0.0 | 0.0 | 0.00 | 0.00 | 0.00 | 74 | 1014.0 |
| 20260504041712 | 21 | 132 | 1.6 | 3.2 | 0.00 | 0.00 | 0.00 | 74 | 1013.9 |
| 20260504041208 | 21 | 201 | 0.0 | 0.0 | 0.00 | 0.00 | 0.00 | 73 | 1014.1 |
| 20260504040705 | 21 | 201 | 0.0 | 0.0 | 0.00 | 0.00 | 0.00 | 73 | 1013.8 |
| 20260504040202 | 21 | 199 | 0.0 | 0.0 | 0.00 | 0.00 | 0.00 | 73 | 1013.7 |
| 20260504035658 | 21 | 195 | 1.6 | 3.2 | 0.00 | 0.00 | 0.00 | 73 | 1013.7 |
| 20260504035155 | 21 | 200 | 0.0 | 0.0 | 0.00 | 0.00 | 0.00 | 73 | 1013.4 |
| 20260504034653 | 21 | 131 | 3.2 | 4.8 | 0.00 | 0.00 | 0.00 | 73 | 1013.8 |
| 20260504034150 | 21 | 186 | 1.6 | 1.6 | 0.00 | 0.00 | 0.00 | 73 | 1013.8 |
| 20260504033648 | 21 | 201 | 0.0 | 1.6 | 0.00 | 0.00 | 0.00 | 72 | 1013.7 |
| 20260504033145 | 21 | 192 | 0.0 | 0.0 | 0.00 | 0.00 | 0.00 | 72 | 1013.6 |
| 20260504032641 | 21 | 192 | 1.6 | 1.6 | 0.00 | 0.00 | 0.00 | 71 | 1013.8 |
| 20260504032139 | 21 | 184 | 0.0 | 0.0 | 0.00 | 0.00 | 0.00 | 71 | 1013.7 |
| 20260504031636 | 21 | 202 | 1.6 | 3.2 | 0.00 | 0.00 | 0.00 | 71 | 1013.9 |
| 20260504031132 | 21 | 211 | 0.0 | 0.0 | 0.00 | 0.00 | 0.00 | 71 | 1013.7 |
| 20260504030629 | 21 | 200 | 0.0 | 1.6 | 0.00 | 0.00 | 0.00 | 70 | 1013.6 |
| 20260504030125 | 21 | 204 | 0.0 | 0.0 | 0.00 | 0.00 | 0.00 | 70 | 1013.6 |
| 20260504025622 | 21 | 188 | 0.0 | 1.6 | 0.00 | 0.00 | 0.00 | 69 | 1013.6 |
| 20260504025119 | 21 | 206 | 0.0 | 0.0 | 0.00 | 0.00 | 0.00 | 69 | 1013.6 |
| 20260504024616 | 21 | 209 | 0.0 | 0.0 | 0.00 | 0.00 | 0.00 | 68 | 1013.8 |
| 20260504024113 | 21 | 197 | 0.0 | 0.0 | 0.00 | 0.00 | 0.00 | 68 | 1013.8 |
| 20260504023609 | 21 | 199 | 0.0 | 0.0 | 0.00 | 0.00 | 0.00 | 68 | 1013.6 |
| 20260504023105 | 21 | 202 | 0.0 | 0.0 | 0.00 | 0.00 | 0.00 | 68 | 1013.5 |
| 20260504022602 | 21 | 186 | 1.6 | 3.2 | 0.00 | 0.00 | 0.00 | 68 | 1013.7 |
| 20260504022058 | 21 | 187 | 0.0 | 0.0 | 0.00 | 0.00 | 0.00 | 67 | 1013.4 |
| 20260504021556 | 21 | 194 | 0.0 | 0.0 | 0.00 | 0.00 | 0.00 | 67 | 1013.4 |
| 20260504021052 | 21 | 198 | 1.6 | 1.6 | 0.00 | 0.00 | 0.00 | 67 | 1013.4 |
| 20260504020549 | 22 | 196 | 0.0 | 0.0 | 0.00 | 0.00 | 0.00 | 67 | 1013.1 |
| 20260504020045 | 22 | 185 | 0.0 | 0.0 | 0.00 | 0.00 | 0.00 | 67 | 1013.3 |
| 20260504015542 | 22 | 199 | 1.6 | 1.6 | 0.00 | 0.00 | 0.00 | 67 | 1013.2 |
| 20260504015038 | 22 | 193 | 1.6 | 1.6 | 0.00 | 0.00 | 0.00 | 67 | 1013.0 |
| 20260504014535 | 22 | 191 | 1.6 | 3.2 | 0.00 | 0.00 | 0.00 | 67 | 1013.1 |
| 20260504014032 | 22 | 196 | 1.6 | 1.6 | 0.00 | 0.00 | 0.00 | 66 | 1013.0 |
| 20260504013529 | 22 | 198 | 1.6 | 1.6 | 0.00 | 0.00 | 0.00 | 66 | 1013.1 |
| 20260504013026 | 22 | 139 | 4.8 | 6.4 | 0.00 | 0.00 | 0.00 | 66 | 1013.2 |
| 20260504012524 | 22 | 193 | 3.2 | 3.2 | 0.00 | 0.00 | 0.00 | 66 | 1013.1 |
| 20260504012022 | 22 | 188 | 0.0 | 0.0 | 0.00 | 0.00 | 0.00 | 66 | 1013.1 |
| 20260504011518 | 22 | 155 | 6.4 | 6.4 | 0.00 | 0.00 | 0.00 | 66 | 1012.9 |
| 20260504011014 | 22 | 200 | 0.0 | 0.0 | 0.00 | 0.00 | 0.00 | 66 | 1013.1 |
| 20260504010509 | 22 | 168 | 3.2 | 6.4 | 0.00 | 0.00 | 0.00 | 66 | 1012.8 |
| 20260504010006 | 22 | 186 | 1.6 | 1.6 | 0.00 | 0.00 | 0.00 | 66 | 1013.1 |
| 20260504005503 | 22 | 193 | 0.0 | 1.6 | 0.00 | 0.00 | 0.00 | 66 | 1012.9 |
| 20260504005000 | 22 | 160 | 3.2 | 6.4 | 0.00 | 0.00 | 0.00 | 66 | 1012.9 |
| 20260504004458 | 23 | 168 | 3.2 | 3.2 | 0.00 | 0.00 | 0.00 | 65 | 1013.0 |
| 20260504003954 | 23 | 228 | 3.2 | 4.8 | 0.00 | 0.00 | 0.00 | 64 | 1013.0 |
| 20260504003450 | 23 | 144 | 8.0 | 12.9 | 0.00 | 0.00 | 0.00 | 63 | 1013.1 |
| 20260504002948 | 23 | 214 | 0.0 | 1.6 | 0.00 | 0.00 | 0.00 | 63 | 1013.4 |
| 20260504002445 | 23 | 163 | 1.6 | 3.2 | 0.00 | 0.00 | 0.00 | 63 | 1013.2 |
| 20260504001942 | 23 | 113 | 1.6 | 1.6 | 0.00 | 0.00 | 0.00 | 62 | 1013.4 |
| 20260504001439 | 23 | 181 | 3.2 | 4.8 | 0.00 | 0.00 | 0.00 | 62 | 1013.1 |
| 20260504000936 | 23 | 175 | 1.6 | 3.2 | 0.00 | 0.00 | 0.00 | 62 | 1013.3 |
| 20260504000433 | 23 | 204 | 1.6 | 3.2 | 0.00 | 0.00 | 0.00 | 63 | 1013.1 |
| 20260503235930 | 23 | 262 | 3.2 | 3.2 | 0.00 | 0.00 | 0.00 | 62 | 1013.3 |
| 20260503235428 | 23 | 184 | 3.2 | 4.8 | 0.00 | 0.00 | 0.00 | 62 | 1013.1 |
| 20260503234925 | 23 | 128 | 1.6 | 3.2 | 0.00 | 0.00 | 0.00 | 62 | 1013.0 |
| 20260503234422 | 23 | 191 | 1.6 | 4.8 | 0.00 | 0.00 | 0.00 | 61 | 1013.1 |
| 20260503233920 | 24 | 253 | 1.6 | 3.2 | 0.00 | 0.00 | 0.00 | 61 | 1013.0 |
| 20260503233417 | 24 | 221 | 1.6 | 3.2 | 0.00 | 0.00 | 0.00 | 61 | 1013.1 |
| 20260503232913 | 24 | 157 | 3.2 | 3.2 | 0.00 | 0.00 | 0.00 | 61 | 1013.2 |
| 20260503232410 | 24 | 127 | 1.6 | 3.2 | 0.00 | 0.00 | 0.00 | 60 | 1013.3 |
| 20260503231908 | 25 | 192 | 1.6 | 1.6 | 0.00 | 0.00 | 0.00 | 60 | 1013.4 |
| 20260503231405 | 25 | 191 | 1.6 | 1.6 | 0.00 | 0.00 | 0.00 | 61 | 1013.4 |
| 20260503230902 | 25 | 146 | 3.2 | 4.8 | 0.00 | 0.00 | 0.00 | 59 | 1013.4 |
| 20260503230358 | 25 | 286 | 1.6 | 3.2 | 0.00 | 0.00 | 0.00 | 59 | 1013.6 |
| 20260503225856 | 25 | 220 | 1.6 | 1.6 | 0.00 | 0.00 | 0.00 | 59 | 1013.4 |
| 20260503225351 | 25 | 167 | 3.2 | 3.2 | 0.00 | 0.00 | 0.00 | 60 | 1013.5 |
| 20260503224848 | 25 | 215 | 1.6 | 3.2 | 0.00 | 0.00 | 0.00 | 59 | 1013.6 |
| 20260503224345 | 25 | 232 | 1.6 | 3.2 | 0.00 | 0.00 | 0.00 | 58 | 1013.5 |
| 20260503223843 | 25 | 91 | 3.2 | 9.7 | 0.00 | 0.00 | 0.00 | 58 | 1013.7 |
| 20260503223340 | 25 | 191 | 1.6 | 3.2 | 0.00 | 0.00 | 0.00 | 59 | 1013.7 |
| 20260503222836 | 25 | 184 | 1.6 | 3.2 | 0.00 | 0.00 | 0.00 | 59 | 1013.6 |
| 20260503222335 | 25 | 106 | 3.2 | 4.8 | 0.00 | 0.00 | 0.00 | 59 | 1013.9 |
| 20260503221832 | 25 | 156 | 3.2 | 4.8 | 0.00 | 0.00 | 0.00 | 59 | 1013.8 |
| 20260503221331 | 25 | 225 | 3.2 | 3.2 | 0.00 | 0.00 | 0.00 | 57 | 1013.8 |
| 20260503220826 | 26 | 213 | 1.6 | 3.2 | 0.00 | 0.00 | 0.00 | 56 | 1013.7 |
| 20260503220323 | 26 | 190 | 1.6 | 1.6 | 0.00 | 0.00 | 0.00 | 56 | 1014.0 |
| 20260503215820 | 26 | 190 | 1.6 | 3.2 | 0.00 | 0.00 | 0.00 | 56 | 1014.1 |
| 20260503215318 | 26 | 206 | 3.2 | 4.8 | 0.00 | 0.00 | 0.00 | 56 | 1014.1 |
| 20260503214815 | 26 | 274 | 4.8 | 6.4 | 0.00 | 0.00 | 0.00 | 54 | 1014.1 |
| 20260503214312 | 26 | 179 | 3.2 | 4.8 | 0.00 | 0.00 | 0.00 | 55 | 1014.2 |
| 20260503213810 | 26 | 90 | 4.8 | 6.4 | 0.00 | 0.00 | 0.00 | 54 | 1014.4 |
| 20260503213307 | 26 | 173 | 4.8 | 9.7 | 0.00 | 0.00 | 0.00 | 55 | 1014.5 |
| 20260503212804 | 26 | 153 | 4.8 | 6.4 | 0.00 | 0.00 | 0.00 | 53 | 1014.7 |
| 20260503212304 | 27 | 275 | 3.2 | 4.8 | 0.00 | 0.00 | 0.00 | 52 | 1014.6 |
| 20260503211759 | 26 | 191 | 3.2 | 3.2 | 0.00 | 0.00 | 0.00 | 53 | 1014.8 |
| 20260503211255 | 27 | 335 | 4.8 | 6.4 | 0.00 | 0.00 | 0.00 | 53 | 1015.0 |
| 20260503210755 | 27 | 172 | 1.6 | 4.8 | 0.00 | 0.00 | 0.00 | 51 | 1015.0 |
| 20260503210253 | 27 | 198 | 3.2 | 4.8 | 0.00 | 0.00 | 0.00 | 53 | 1014.9 |
| 20260503205748 | 27 | 193 | 3.2 | 6.4 | 0.00 | 0.00 | 0.00 | 51 | 1014.9 |
| 20260503205245 | 26 | 356 | 3.2 | 3.2 | 0.00 | 0.00 | 0.00 | 52 | 1015.0 |
| 20260503204741 | 26 | 44 | 3.2 | 3.2 | 0.00 | 0.00 | 0.00 | 53 | 1015.0 |
| 20260503204239 | 26 | 28 | 3.2 | 3.2 | 0.00 | 0.00 | 0.00 | 51 | 1015.0 |
| 20260503203736 | 26 | 4 | 3.2 | 4.8 | 0.00 | 0.00 | 0.00 | 52 | 1015.2 |
| 20260503203234 | 26 | 234 | 3.2 | 6.4 | 0.00 | 0.00 | 0.00 | 52 | 1015.6 |
| 20260503202731 | 26 | 192 | 3.2 | 3.2 | 0.00 | 0.00 | 0.00 | 53 | 1015.3 |
| 20260503202229 | 26 | 189 | 3.2 | 4.8 | 0.00 | 0.00 | 0.00 | 52 | 1015.7 |
| 20260503201726 | 26 | 1 | 9.7 | 17.7 | 0.00 | 0.00 | 0.00 | 52 | 1015.3 |
| 20260503201224 | 26 | 293 | 6.4 | 9.7 | 0.00 | 0.00 | 0.00 | 52 | 1015.4 |
| 20260503200720 | 27 | 209 | 4.8 | 6.4 | 0.00 | 0.00 | 0.00 | 51 | 1015.7 |
| 20260503200216 | 27 | 204 | 1.6 | 1.6 | 0.00 | 0.00 | 0.00 | 51 | 1015.9 |
| 20260503195713 | 27 | 263 | 3.2 | 3.2 | 0.00 | 0.00 | 0.00 | 50 | 1016.1 |
| 20260503195210 | 27 | 268 | 3.2 | 3.2 | 0.00 | 0.00 | 0.00 | 49 | 1016.0 |
| 20260503194707 | 26 | 320 | 3.2 | 3.2 | 0.00 | 0.00 | 0.00 | 50 | 1016.0 |
| 20260503194203 | 26 | 336 | 8.0 | 12.9 | 0.00 | 0.00 | 0.00 | 50 | 1016.2 |
| 20260503193700 | 27 | 319 | 3.2 | 4.8 | 0.00 | 0.00 | 0.00 | 50 | 1016.3 |
| 20260503193155 | 26 | 136 | 1.6 | 1.6 | 0.00 | 0.00 | 0.00 | 50 | 1016.4 |
| 20260503192651 | 27 | 253 | 0.0 | 1.6 | 0.00 | 0.00 | 0.00 | 49 | 1016.3 |
| 20260503192147 | 27 | 343 | 3.2 | 4.8 | 0.00 | 0.00 | 0.00 | 48 | 1016.5 |
| 20260503191644 | 27 | 247 | 6.4 | 11.3 | 0.00 | 0.00 | 0.00 | 50 | 1016.5 |
| 20260503191141 | 26 | 339 | 3.2 | 3.2 | 0.00 | 0.00 | 0.00 | 50 | 1016.5 |
| 20260503190638 | 26 | 21 | 4.8 | 4.8 | 0.00 | 0.00 | 0.00 | 50 | 1016.4 |
| 20260503190135 | 26 | 23 | 4.8 | 9.7 | 0.00 | 0.00 | 0.00 | 50 | 1016.7 |
| 20260503185631 | 26 | 323 | 4.8 | 4.8 | 0.00 | 0.00 | 0.00 | 50 | 1016.8 |
| 20260503185126 | 26 | 307 | 3.2 | 4.8 | 0.00 | 0.00 | 0.00 | 49 | 1016.9 |
| 20260503184622 | 26 | 357 | 3.2 | 3.2 | 0.00 | 0.00 | 0.00 | 50 | 1016.8 |
| 20260503184118 | 26 | 21 | 3.2 | 6.4 | 0.00 | 0.00 | 0.00 | 51 | 1017.2 |
| 20260503183615 | 26 | 8 | 4.8 | 6.4 | 0.00 | 0.00 | 0.00 | 50 | 1017.0 |
| 20260503183112 | 26 | 25 | 6.4 | 12.9 | 0.00 | 0.00 | 0.00 | 50 | 1017.1 |
| 20260503182611 | 26 | 302 | 3.2 | 4.8 | 0.00 | 0.00 | 0.00 | 50 | 1017.3 |
| 20260503182109 | 26 | 220 | 3.2 | 6.4 | 0.00 | 0.00 | 0.00 | 50 | 1017.2 |
| 20260503181605 | 27 | 167 | 0.0 | 0.0 | 0.00 | 0.00 | 0.00 | 51 | 1017.4 |
| 20260503181102 | 26 | 206 | 3.2 | 3.2 | 0.00 | 0.00 | 0.00 | 52 | 1017.5 |
| 20260503180559 | 26 | 50 | 4.8 | 4.8 | 0.00 | 0.00 | 0.00 | 51 | 1017.4 |
| 20260503180056 | 26 | 280 | 1.6 | 3.2 | 0.00 | 0.00 | 0.00 | 50 | 1017.6 |
| 20260503175553 | 26 | 352 | 6.4 | 9.7 | 0.00 | 0.00 | 0.00 | 55 | 1017.7 |
| 20260503175051 | 26 | 16 | 6.4 | 9.7 | 0.00 | 0.00 | 0.00 | 54 | 1017.8 |
| 20260503174547 | 26 | 225 | 0.0 | 1.6 | 0.00 | 0.00 | 0.00 | 58 | 1017.5 |
| 20260503174044 | 26 | 43 | 3.2 | 3.2 | 0.00 | 0.00 | 0.00 | 57 | 1017.8 |
| 20260503173539 | 26 | 87 | 1.6 | 3.2 | 0.00 | 0.00 | 0.00 | 57 | 1017.8 |
| 20260503173035 | 26 | 33 | 1.6 | 3.2 | 0.00 | 0.00 | 0.00 | 59 | 1018.0 |
| 20260503172533 | 26 | 69 | 1.6 | 4.8 | 0.00 | 0.00 | 0.00 | 58 | 1018.0 |
| 20260503172030 | 25 | 289 | 3.2 | 3.2 | 0.00 | 0.00 | 0.00 | 58 | 1018.0 |
| 20260503171526 | 26 | 330 | 6.4 | 9.7 | 0.00 | 0.00 | 0.00 | 54 | 1018.1 |
| 20260503171024 | 25 | 70 | 1.6 | 3.2 | 0.00 | 0.00 | 0.00 | 57 | 1017.9 |
| 20260503170520 | 26 | 288 | 1.6 | 3.2 | 0.00 | 0.00 | 0.00 | 54 | 1017.9 |
| 20260503150913 | 25 | 225 | 0.0 | 1.6 | 0.00 | 0.00 | 0.00 | 65 | 1018.2 |
| 20260503150409 | 24 | 179 | 0.0 | 0.0 | 0.00 | 0.00 | 0.00 | 65 | 1018.4 |
| 20260503131303 | 20 | 225 | 0.0 | 0.0 | 0.00 | 0.00 | 0.00 | 81 | 1017.4 |
| 20260503130800 | 20 | 240 | 1.6 | 3.2 | 0.00 | 0.00 | 0.00 | 82 | 1017.2 |
| 20260503130257 | 19 | 218 | 1.6 | 3.2 | 0.00 | 0.00 | 0.00 | 83 | 1017.1 |
| 20260503110651 | 13 | 234 | 0.0 | 0.0 | 0.00 | 0.00 | 0.00 | 92 | 1016.4 |
| 20260503110148 | 13 | 229 | 0.0 | 0.0 | 0.00 | 0.00 | 0.00 | 92 | 1016.5 |
| 20260503100115 | 14 | 220 | 0.0 | 0.0 | 0.00 | 0.00 | 0.00 | 93 | 1016.4 |
| 20260503081504 | 15 | 217 | 0.0 | 0.0 | 0.00 | 0.00 | 0.00 | 86 | 1016.5 |
| 20260503081001 | 15 | 217 | 0.0 | 0.0 | 0.00 | 0.00 | 0.00 | 86 | 1016.5 |
| 20260503080457 | 15 | 217 | 0.0 | 0.0 | 0.00 | 0.00 | 0.00 | 85 | 1016.6 |
| 20260503072934 | 16 | 217 | 0.0 | 0.0 | 0.00 | 0.00 | 0.00 | 81 | 1016.5 |
| 20260503072431 | 16 | 217 | 0.0 | 0.0 | 0.00 | 0.00 | 0.00 | 81 | 1016.6 |
| 20260503071928 | 16 | 216 | 0.0 | 0.0 | 0.00 | 0.00 | 0.00 | 80 | 1016.8 |
| 20260503071425 | 16 | 216 | 0.0 | 0.0 | 0.00 | 0.00 | 0.00 | 79 | 1016.8 |
| 20260503070921 | 16 | 216 | 0.0 | 0.0 | 0.00 | 0.00 | 0.00 | 79 | 1016.8 |
| 20260503070418 | 17 | 216 | 0.0 | 0.0 | 0.00 | 0.00 | 0.00 | 78 | 1016.5 |